This is the latest recevied weather packets stored in our database for station/object W0VI. If no packets are shown the sender has not sent any weather packets the latest 10 day(s).
| Time | Temp. | Humidity | Pressure | Rain* | Wind** | Luminosity | Snow |
|---|---|---|---|---|---|---|---|
| 1787529560 | 25.56° C | 47% | 1016.9 hPa | 0 mm | - | 58 W/m² | - |
| 1787529259 | 25.56° C | 48% | 1016.7 hPa | 0 mm | - | 65 W/m² | - |
| 1787528954 | 26.11° C | 47% | 1016.8 hPa | 0 mm | - | 90 W/m² | - |
| 1787528652 | 26.67° C | 45% | 1016.9 hPa | 0 mm | - | 94 W/m² | - |
| 1787528351 | 26.11° C | 46% | 1017 hPa | 0 mm | - | 108 W/m² | - |
| 1787528048 | 26.11° C | 46% | 1017 hPa | 0 mm | - | 109 W/m² | - |
| 1787527743 | 25.56° C | 46% | 1017 hPa | 0 mm | - | 126 W/m² | - |
| 1787527439 | 25.56° C | 46% | 1017.1 hPa | 0 mm | - | 136 W/m² | - |
| 1787527134 | 25.56° C | 47% | 1017 hPa | 0 mm | - | 149 W/m² | - |
| 1787526830 | 25.56° C | 45% | 1017 hPa | 0 mm | - | 152 W/m² | - |
| 1787526526 | 25.56° C | 46% | 1017 hPa | 0 mm | - | 165 W/m² | - |
| 1787526222 | 25.56° C | 45% | 1017.3 hPa | 0 mm | - | 170 W/m² | - |
| 1787525917 | 25.56° C | 46% | 1017.1 hPa | 0 mm | - | 173 W/m² | - |
| 1787525612 | 26.11° C | 45% | 1017.2 hPa | 0 mm | - | 202 W/m² | - |
| 1787525307 | 26.11° C | 45% | 1017.1 hPa | 0 mm | - | 205 W/m² | - |
| 1787525005 | 26.11° C | 46% | 1017.3 hPa | 0 mm | - | 220 W/m² | - |
| 1787524703 | 26.67° C | 45% | 1017.3 hPa | 0 mm | - | 224 W/m² | - |
| 1787524399 | 26.11° C | 45% | 1017.5 hPa | 0 mm | - | 229 W/m² | - |
| 1787524095 | 26.11° C | 44% | 1017.3 hPa | 0 mm | - | 235 W/m² | - |
| 1787523790 | 26.11° C | 44% | 1017.4 hPa | 0 mm | - | 238 W/m² | - |
| 1787523490 | 26.67° C | 44% | 1017.3 hPa | 0 mm | - | 260 W/m² | - |
| 1787523185 | 26.67° C | 44% | 1017.2 hPa | 0 mm | - | 251 W/m² | - |
| 1787522880 | 26.11° C | 44% | 1017.4 hPa | 0 mm | - | 280 W/m² | - |
| 1787522576 | 26.11° C | 44% | 1017.4 hPa | 0 mm | - | 306 W/m² | - |
| 1787522271 | 26.11° C | 44% | 1017.3 hPa | 0 mm | - | 323 W/m² | - |
* Rain latest hour (hover to see other rain measurements)
** Current wind speed in m/s (hover to see current wind gust speed)